Vertical_Velocity
-0 -0 -0 -0 -1 -1 -1 -1 -0 -1 0 -0 -1 -1 -0 0 -1 -1 -1 -1 0 1 -0 2 -1 -1 0 1 2 1 -1 -2 -0 -4 1 -4 -11 -3 -3 20 2 2 -2 -2 -2
-1 -0 -1 0 0 -1 -1 -0 -1 0 -1 0 -1 -0 -0 -0 -0 -1 1 -0 -0 -1 -0 0 -0 -1 1 -0 -0 -2 -1 -2 1 4 -8 -3 -2 -4 -6 -5 6 -4 -3 -2 -2
-0 -1 -1 -1 -0 0 -1 0 -1 -0 0 -1 -0 0 -0 0 2 -5 -0 -0 1 -0 0 -0 1 2 2 0 1 -0 -3 -1 0 -6 12 -2 8 2 -0 3 14 -3 -3 0 -2
-2 -2 -0 -1 -1 0 0 -0 0 1 -1 0 -1 -1 -1 1 5 -1 -1 0 0 0 1 -0 -0 1 -1 1 1 -2 -1 -1 -5 -1 -3 6 12 -1 -4 -6 4 -2 -3 -2 -2
-1 -2 -3 -1 -1 -0 -0 0 -1 -1 1 -0 0 -1 -1 -1 7 0 -1 0 -1 -1 1 0 0 -1 1 -1 -1 -1 0 -1 -2 -6 -3 -5 -7 -10 3 9 10 3 -2 -4 1
1 0 -1 -1 -2 -0 -1 -1 -0 -0 -1 -0 -0 1 -1 -2 9 -1 -1 1 -1 -0 0 1 3 1 -1 0 3 -1 -5 -0 -2 -1 5 -5 -3 -5 -2 -3 -5 -4 -5 -4 -1
-3 -1 2 -1 -0 -0 -1 1 -1 -0 -0 0 -0 -1 -0 7 -1 -2 -0 1 0 -0 -1 0 0 1 -2 -1 2 3 2 -3 -2 2 7 43 -1 2 -1 -4 -4 1 -1 2 1
-0 -2 -1 -0 1 -0 -1 0 1 -0 -1 -1 -0 1 1 -3 2 1 1 1 1 1 -1 -1 -0 2 -1 -2 -2 -1 0 2 2 3 -4 -2 -1 10 10 -9 1 5 -1 1 1
3 6 1 -1 2 2 1 -1 -1 0 0 -2 -0 -0 3 -1 1 2 1 -0 1 1 -1 -1 -1 -0 -0 -0 1 3 2 4 1 2 -1 -0 2 4 -1 8 -0 -2 1 -2 -0
-3 1 3 1 1 0 2 1 -0 -1 0 -1 0 1 2 3 -0 1 1 2 1 -0 -1 0 -0 -1 -1 0 5 3 6 3 3 4 -1 29 -7 -4 -1 146 -11 -2 -2 1 3
-3 -2 1 1 2 1 1 -1 2 -0 4 -2 0 -3 2 1 3 2 2 -0 1 0 0 0 -2 6 -1 1 1 2 -4 -8 -6 8 1 20 3 -5 -1 -3 13 -14 -0 0 -0
-3 -1 1 1 0 2 1 -2 -4 7 -1 -1 1 -1 3 -1 3 1 1 1 -1 4 -2 -4 6 4 1 -0 1 -1 2 2 -3 5 2 15 1 -7 4 -9 -8 0 -3 -5 4
0 3 1 2 1 1 1 2 -1 0 3 -0 -1 0 3 1 -1 4 5 0 0 -1 -0 -1 16 -3 -2 2 1 -0 -1 3 1 -7 8 2 -1 6 6 -9 -9 108 2 -0 -1
-1 -0 2 3 3 -0 3 -0 1 2 2 -4 1 -13 13 -1 -2 15 -4 2 5 1 -1 -4 7 -0 -0 1 -1 -0 2 1 5 -5 -9 1 -1 3 10 7 -3 -16 -10 8 -2
-2 -2 0 2 2 3 -0 3 -2 3 -2 -0 9 -0 7 -5 3 -2 2 -1 1 4 -3 12 5 -1 -2 4 -2 12 -3 -2 -0 -3 -4 -0 2 -2 5 3 2 -4 -12 5 -6
-3 -0 0 2 1 4 2 3 2 3 -4 -7 6 1 3 -1 2 5 2 2 -1 7 1 7 -5 -10 2 0 2 3 -1 -1 -3 -2 -17 10 -3 -3 1 1 -3 -7 -13 5 7
-1 4 2 1 2 2 5 2 5 10 3 -1 -2 5 1 3 -6 3 3 1 5 2 2 -4 1 8 1 -4 -2 -2 0 2 -8 -12 9 9 0 0 1 -2 4 12 -4 1 7
-2 3 1 2 5 6 4 8 12 -9 -6 -1 -4 6 1 -5 2 0 -0 3 12 -2 4 -4 3 13 15 8 9 -2 4 -6 -8 -9 22 17 -7 1 0 7 -4 -8 3 -1 3
-2 -1 -2 -0 3 7 4 7 -2 -1 5 -2 7 3 -2 5 1 2 5 6 -6 -6 -4 -8 7 -13 5 -2 -19 18 -22 18 -3 4 2 -5 3 -4 3 3 -1 -9 -1 -3 -12
0 -1 3 -1 2 4 7 -4 -4 -1 -2 7 1 -2 -4 -3 1 -1 0 7 -25 -8 -4 -8 15 -5 -0 -14 8 -9 21 2 -9 -8 -3 -7 3 -8 -2 17 7 -14 -5 1 0
-0 2 -3 -3 -4 4 2 -2 2 9 4 -1 2 1 11 -10 -2 -5 3 -12 -13 -9 -3 -1 -3 7 9 -4 8 -10 14 -3 1 -3 -6 -1 -2 10 12 7 40 19 -1 -0 -5
-2 1 -2 -1 1 2 0 -1 -3 5 -2 -0 -1 -1 -1 -2 -1 4 -4 -3 -2 -2 -8 3 1 6 -0 8 -1 -2 3 -13 -6 -2 -3 -3 -18 2 11 6 28 -25 -6 11 5
-4 1 -1 -2 4 -1 -3 3 -0 -2 6 1 -4 5 4 4 5 1 -5 -16 -1 -5 -3 -0 -0 5 3 12 23 -5 7 -3 -1 9 3 -3 -3 35 8 10 15 1 5 12 2
-7 2 -3 -2 -1 -1 0 -3 2 -6 2 -1 -2 -2 1 -0 -1 2 0 2 -5 -9 1 -5 -2 -6 -12 16 3 -12 2 -4 -9 1 -5 -18 -4 46 10 6 5 27 15 -1 9
-1 -4 -3 -0 2 3 1 1 0 -1 1 -2 1 1 0 0 -0 -3 -3 -2 -5 -7 -8 -3 -6 -7 -3 3 -4 2 1 3 -9 -6 -14 3 -6 4 -3 7 3 18 8 11 -5
1 -3 1 -0 -2 -1 -0 -1 -1 -0 3 2 1 -1 -1 0 0 -4 0 -3 0 -7 -5 -6 -7 -12 4 6 5 -10 8 1 -16 -5 -4 1 22 -6 -22 -4 9 -4 24 -3 -5
-1 2 0 -0 -0 -1 -2 -1 -2 -2 -1 -1 -0 -1 -1 -1 -2 -3 -5 -1 -0 -2 -4 -0 -8 -11 -12 1 2 -25 4 9 -1 6 -4 2 41 -13 -6 -0 -8 -10 -4 12 4
Height
5863 5862 5862 5861 5862 5861 5861 5862 5862 5862 5863 5864 5864 5865 5866 5868 5869 5870 5872 5874 5875 5877 5879 5881 5883 5885 5886 5888 5889 5890 5891 5892 5892 5891 5891 5891 5892 5893 5894 5894 5899 5902 5904 5905 5906
5857 5857 5857 5857 5856 5856 5856 5857 5857 5858 5859 5860 5861 5862 5864 5865 5866 5867 5870 5871 5873 5875 5877 5878 5880 5883 5884 5886 5887 5888 5890 5892 5892 5892 5890 5890 5892 5893 5895 5899 5899 5904 5905 5905 5906
5851 5851 5850 5850 5851 5851 5851 5851 5852 5853 5854 5855 5857 5858 5860 5862 5864 5863 5866 5868 5871 5873 5875 5876 5878 5881 5882 5883 5885 5887 5889 5890 5890 5891 5891 5888 5886 5894 5895 5899 5897 5903 5903 5905 5907
5846 5845 5844 5844 5844 5844 5845 5845 5846 5847 5848 5850 5852 5854 5855 5859 5862 5861 5863 5865 5867 5870 5872 5874 5876 5878 5879 5880 5882 5886 5888 5888 5889 5890 5890 5887 5889 5892 5895 5895 5898 5902 5903 5905 5906
5842 5840 5839 5838 5838 5838 5838 5839 5839 5841 5842 5844 5845 5848 5850 5854 5857 5858 5859 5861 5864 5866 5868 5870 5874 5876 5878 5878 5880 5882 5885 5886 5888 5889 5892 5892 5891 5890 5887 5879 5894 5900 5902 5905 5906
5835 5834 5833 5832 5832 5832 5832 5833 5833 5834 5836 5838 5839 5841 5845 5849 5852 5852 5855 5857 5860 5863 5865 5867 5871 5873 5875 5876 5879 5879 5881 5885 5886 5890 5891 5893 5892 5889 5891 5893 5896 5901 5901 5903 5904
5827 5826 5825 5825 5825 5825 5825 5826 5826 5828 5829 5831 5834 5835 5838 5845 5843 5846 5850 5853 5856 5859 5861 5863 5866 5869 5872 5874 5876 5878 5880 5882 5885 5888 5890 5884 5892 5894 5894 5894 5894 5899 5900 5902 5904
5815 5815 5815 5815 5815 5816 5817 5818 5819 5821 5822 5825 5827 5830 5833 5836 5839 5842 5845 5848 5851 5854 5857 5860 5862 5865 5867 5870 5873 5875 5878 5882 5883 5886 5886 5890 5891 5892 5892 5894 5896 5897 5900 5902 5905
5802 5801 5802 5803 5804 5805 5807 5809 5812 5813 5815 5818 5821 5824 5828 5830 5834 5837 5840 5842 5845 5849 5852 5855 5859 5861 5864 5867 5871 5876 5878 5881 5883 5884 5885 5886 5888 5892 5893 5892 5894 5897 5900 5903 5904
5791 5790 5790 5791 5793 5794 5796 5799 5802 5805 5808 5811 5814 5818 5822 5826 5828 5831 5835 5838 5840 5843 5846 5850 5854 5857 5861 5864 5869 5872 5875 5878 5882 5885 5883 5883 5885 5888 5889 5862 5885 5891 5898 5903 5906
5780 5780 5779 5780 5781 5783 5786 5789 5793 5798 5800 5803 5807 5809 5815 5818 5822 5825 5829 5832 5835 5838 5842 5846 5849 5855 5857 5860 5863 5866 5868 5868 5873 5883 5884 5882 5882 5884 5889 5888 5886 5894 5897 5902 5902
5770 5768 5768 5769 5770 5772 5775 5779 5782 5788 5791 5794 5798 5802 5807 5810 5815 5818 5822 5827 5830 5834 5837 5841 5846 5850 5852 5855 5858 5861 5865 5870 5874 5878 5880 5882 5880 5882 5889 5888 5892 5891 5897 5899 5901
5757 5756 5756 5757 5758 5762 5765 5769 5772 5776 5782 5786 5790 5794 5799 5803 5806 5812 5816 5819 5823 5828 5832 5835 5843 5842 5846 5850 5853 5856 5860 5867 5871 5872 5879 5879 5880 5882 5887 5888 5891 5877 5892 5896 5900
5747 5744 5744 5745 5749 5751 5756 5760 5764 5768 5772 5777 5782 5785 5792 5794 5798 5805 5807 5812 5817 5821 5825 5830 5834 5837 5841 5844 5848 5852 5856 5861 5866 5866 5869 5874 5879 5882 5887 5886 5889 5891 5891 5894 5898
5741 5738 5735 5735 5738 5742 5746 5751 5757 5760 5763 5768 5775 5777 5783 5786 5791 5795 5799 5804 5808 5813 5818 5823 5827 5830 5834 5839 5842 5848 5850 5854 5858 5859 5864 5866 5869 5875 5880 5882 5885 5887 5884 5894 5896
5734 5730 5728 5728 5730 5734 5738 5744 5749 5755 5756 5760 5766 5770 5775 5778 5782 5788 5792 5796 5800 5805 5809 5815 5818 5822 5827 5832 5836 5840 5844 5847 5851 5853 5855 5865 5865 5869 5875 5882 5883 5885 5888 5895 5897
5724 5722 5722 5722 5725 5729 5734 5739 5746 5749 5752 5755 5757 5763 5768 5771 5774 5778 5784 5787 5791 5795 5799 5804 5810 5817 5820 5824 5828 5833 5837 5841 5844 5849 5854 5863 5862 5868 5873 5877 5886 5886 5891 5892 5896
5716 5715 5717 5719 5722 5726 5731 5736 5739 5741 5748 5750 5751 5756 5761 5762 5767 5772 5775 5779 5782 5784 5790 5795 5805 5808 5814 5819 5823 5826 5831 5834 5839 5846 5850 5856 5855 5867 5867 5871 5876 5880 5885 5891 5891
5721 5718 5717 5718 5720 5723 5728 5730 5732 5736 5740 5741 5747 5751 5757 5759 5760 5763 5769 5772 5770 5775 5782 5786 5793 5795 5802 5802 5808 5818 5820 5832 5833 5837 5836 5845 5853 5861 5866 5865 5868 5872 5876 5877 5882
5727 5723 5721 5718 5719 5723 5726 5726 5728 5733 5738 5741 5744 5747 5750 5752 5755 5755 5758 5761 5762 5768 5773 5778 5788 5790 5793 5796 5805 5808 5820 5817 5822 5826 5829 5837 5846 5853 5862 5867 5867 5868 5870 5875 5878
5730 5727 5724 5723 5722 5725 5726 5726 5728 5733 5734 5737 5741 5744 5746 5744 5745 5747 5749 5750 5756 5759 5764 5769 5775 5786 5788 5791 5794 5797 5803 5806 5813 5817 5820 5828 5839 5855 5860 5864 5864 5864 5865 5869 5873
5735 5732 5728 5727 5727 5727 5727 5728 5728 5731 5731 5734 5736 5738 5739 5743 5742 5742 5744 5746 5749 5753 5754 5761 5766 5770 5778 5783 5783 5786 5790 5797 5802 5809 5812 5817 5829 5851 5849 5852 5851 5847 5853 5860 5862
5739 5737 5733 5731 5731 5729 5728 5728 5728 5728 5730 5730 5730 5732 5733 5737 5739 5738 5738 5738 5740 5743 5745 5748 5753 5758 5767 5776 5777 5775 5779 5783 5789 5795 5801 5806 5819 5840 5841 5843 5845 5837 5838 5847 5852
5741 5739 5736 5733 5730 5728 5727 5725 5725 5724 5726 5725 5725 5726 5727 5728 5730 5731 5732 5733 5731 5732 5733 5735 5739 5742 5750 5758 5756 5762 5767 5772 5779 5786 5794 5797 5808 5832 5825 5831 5837 5837 5838 5843 5850
5743 5739 5736 5733 5730 5728 5726 5724 5723 5721 5721 5721 5722 5724 5724 5724 5725 5725 5726 5725 5726 5726 5724 5724 5726 5728 5734 5739 5741 5750 5754 5759 5761 5771 5778 5791 5796 5808 5809 5819 5824 5828 5828 5833 5839
5740 5736 5733 5730 5728 5725 5723 5721 5721 5720 5720 5719 5720 5720 5720 5720 5720 5718 5717 5715 5716 5715 5714 5714 5715 5714 5719 5720 5725 5731 5739 5744 5749 5758 5765 5772 5785 5788 5789 5804 5809 5811 5819 5820 5828
5737 5734 5730 5728 5724 5723 5721 5720 5719 5718 5718 5716 5715 5714 5713 5713 5712 5710 5708 5706 5704 5703 5703 5704 5701 5701 5703 5702 5701 5712 5731 5736 5739 5747 5755 5761 5772 5772 5772 5791 5788 5797 5805 5811 5817